GLEIR EGGP-EGNX

Flight info

Callsign GLEIR
Flight time 0h 27m
Altitude 5000
Route NANTI Y53 NUGRA DCT EMW
Aircraft BE58/L-SDFGRY/C

Departure

Time 2026-05-04 14:03
Airport Liverpool John Lennon Airport (EGGP)

Arrival

Time 2026-05-04 14:30
Airport East Midlands Airport (EGNX)
Time Latitude Longitude Altitude Speed Heading
2026-05-04 13:54 53.33689 -2.83674 83 ft 0 kts 266°
2026-05-04 14:00 53.33682 -2.83727 84 ft 7 kts 252°
2026-05-04 14:00 53.33646 -2.83796 85 ft 9 kts 178°
2026-05-04 14:01 53.33585 -2.83828 84 ft 10 kts 251°
2026-05-04 14:01 53.33577 -2.83946 84 ft 9 kts 263°
2026-05-04 14:01 53.33541 -2.84190 83 ft 14 kts 238°
2026-05-04 14:02 53.33472 -2.84364 82 ft 20 kts 234°
2026-05-04 14:02 53.33395 -2.84605 81 ft 29 kts 261°
2026-05-04 14:02 53.33344 -2.85364 77 ft 103 kts 267°
2026-05-04 14:02 53.33247 -2.86667 451 ft 115 kts 261°
2026-05-04 14:03 53.33052 -2.87924 1018 ft 118 kts 255°
2026-05-04 14:03 53.32769 -2.89288 1424 ft 130 kts 250°
2026-05-04 14:03 53.32375 -2.90801 1716 ft 148 kts 247°
2026-05-04 14:03 53.31948 -2.92320 2220 ft 146 kts 244°
2026-05-04 14:04 53.30734 -2.95219 2924 ft 161 kts 205°
2026-05-04 14:04 53.29698 -2.94867 3134 ft 168 kts 129°
2026-05-04 14:04 53.29412 -2.93117 3486 ft 164 kts 85°
2026-05-04 14:05 53.28900 -2.89806 4302 ft 160 kts 152°
2026-05-04 14:05 53.28009 -2.88605 4400 ft 174 kts 122°
2026-05-04 14:05 53.27329 -2.86864 4429 ft 186 kts 121°
2026-05-04 14:06 53.26569 -2.85062 4484 ft 191 kts 123°
2026-05-04 14:06 53.25776 -2.83271 4551 ft 194 kts 124°
2026-05-04 14:06 53.24978 -2.81499 4700 ft 192 kts 124°
2026-05-04 14:06 53.24174 -2.79715 4799 ft 192 kts 124°
2026-05-04 14:07 53.23371 -2.77941 4901 ft 193 kts 125°
2026-05-04 14:07 53.22561 -2.76153 4999 ft 193 kts 125°
2026-05-04 14:07 53.21759 -2.74375 5100 ft 194 kts 125°
2026-05-04 14:07 53.20940 -2.72558 5065 ft 195 kts 124°
2026-05-04 14:08 53.20127 -2.70754 5063 ft 192 kts 124°
2026-05-04 14:08 53.19327 -2.68982 5061 ft 191 kts 124°
2026-05-04 14:08 53.18539 -2.67238 5061 ft 190 kts 124°
2026-05-04 14:08 53.17746 -2.65480 5061 ft 189 kts 124°
2026-05-04 14:09 53.16150 -2.61977 5065 ft 190 kts 125°
2026-05-04 14:09 53.15354 -2.60228 5063 ft 190 kts 126°
2026-05-04 14:10 53.13771 -2.56740 5061 ft 190 kts 123°
2026-05-04 14:10 53.13159 -2.54821 5057 ft 189 kts 125°
2026-05-04 14:10 53.12342 -2.53075 5058 ft 189 kts 126°
2026-05-04 14:10 53.11572 -2.51317 5060 ft 190 kts 124°
2026-05-04 14:11 53.10812 -2.49503 5058 ft 190 kts 123°
2026-05-04 14:11 53.09328 -2.45893 5057 ft 190 kts 123°
2026-05-04 14:11 53.08588 -2.44090 5062 ft 190 kts 123°
2026-05-04 14:12 53.07845 -2.42277 5055 ft 190 kts 123°
2026-05-04 14:12 53.07104 -2.40469 5055 ft 190 kts 123°
2026-05-04 14:12 53.05613 -2.36838 5053 ft 190 kts 123°
2026-05-04 14:13 53.04862 -2.35011 5052 ft 190 kts 123°
2026-05-04 14:13 53.04118 -2.33205 5051 ft 191 kts 124°
2026-05-04 14:13 53.03367 -2.31380 5050 ft 191 kts 124°
2026-05-04 14:13 53.02734 -2.29460 5049 ft 190 kts 112°
2026-05-04 14:14 53.02261 -2.27417 5049 ft 190 kts 110°
2026-05-04 14:14 53.01311 -2.23310 5047 ft 190 kts 111°
2026-05-04 14:14 53.00834 -2.21261 5047 ft 190 kts 111°
2026-05-04 14:15 52.99913 -2.17178 5045 ft 190 kts 109°
2026-05-04 14:15 52.99020 -2.13056 5046 ft 190 kts 109°
2026-05-04 14:16 52.98125 -2.08923 5047 ft 190 kts 109°
2026-05-04 14:16 52.97684 -2.06882 5047 ft 190 kts 109°
2026-05-04 14:17 52.96789 -2.02733 5048 ft 190 kts 109°
2026-05-04 14:17 52.96341 -2.00661 5047 ft 191 kts 109°
2026-05-04 14:17 52.95447 -1.96545 5047 ft 191 kts 109°
2026-05-04 14:18 52.95000 -1.94473 5045 ft 191 kts 109°
2026-05-04 14:18 52.94110 -1.90340 5047 ft 190 kts 109°
2026-05-04 14:19 52.93227 -1.86244 5046 ft 190 kts 109°
2026-05-04 14:19 52.92781 -1.84182 5044 ft 190 kts 109°
2026-05-04 14:19 52.92333 -1.82124 5046 ft 190 kts 109°
2026-05-04 14:19 52.91883 -1.80055 5050 ft 190 kts 109°
2026-05-04 14:20 52.91437 -1.78016 5052 ft 190 kts 109°
2026-05-04 14:20 52.90982 -1.75944 5052 ft 190 kts 109°
2026-05-04 14:20 52.90529 -1.73887 5052 ft 190 kts 109°
2026-05-04 14:21 52.89623 -1.69774 5052 ft 191 kts 109°
2026-05-04 14:21 52.89169 -1.67714 5050 ft 190 kts 109°
2026-05-04 14:21 52.88717 -1.65662 5052 ft 190 kts 109°
2026-05-04 14:21 52.88271 -1.63638 5052 ft 184 kts 109°
2026-05-04 14:22 52.87835 -1.61656 4976 ft 183 kts 109°
2026-05-04 14:22 52.87390 -1.59655 4895 ft 183 kts 109°
2026-05-04 14:22 52.86956 -1.57703 4754 ft 181 kts 109°
2026-05-04 14:22 52.86522 -1.55761 4588 ft 180 kts 109°
2026-05-04 14:23 52.85593 -1.51951 4245 ft 180 kts 125°
2026-05-04 14:23 52.84716 -1.50483 4072 ft 178 kts 136°
2026-05-04 14:23 52.83797 -1.49121 3895 ft 176 kts 137°
2026-05-04 14:24 52.82883 -1.47779 3716 ft 174 kts 137°
2026-05-04 14:24 52.81998 -1.46458 3527 ft 170 kts 129°
2026-05-04 14:24 52.81565 -1.44710 3319 ft 165 kts 98°
2026-05-04 14:24 52.81213 -1.42917 3100 ft 166 kts 122°
2026-05-04 14:25 52.80267 -1.41862 2866 ft 169 kts 165°
2026-05-04 14:25 52.78265 -1.43435 2426 ft 168 kts 234°
2026-05-04 14:25 52.77994 -1.45239 2293 ft 159 kts 280°
2026-05-04 14:26 52.78507 -1.46705 2307 ft 144 kts 323°
2026-05-04 14:26 52.79404 -1.47245 2250 ft 140 kts 343°
2026-05-04 14:26 52.80190 -1.48195 2175 ft 140 kts 314°
2026-05-04 14:26 52.80960 -1.49088 2099 ft 137 kts 346°
2026-05-04 14:27 52.81875 -1.48881 2013 ft 136 kts 29°
2026-05-04 14:27 52.82441 -1.47661 1928 ft 137 kts 72°
2026-05-04 14:27 52.82669 -1.46093 1730 ft 145 kts 72°
2026-05-04 14:27 52.82841 -1.44547 1540 ft 129 kts 81°
2026-05-04 14:28 52.82904 -1.43143 1361 ft 116 kts 84°
2026-05-04 14:28 52.82934 -1.41903 1209 ft 96 kts 85°
2026-05-04 14:28 52.82954 -1.40904 1058 ft 81 kts 84°
2026-05-04 14:28 52.82972 -1.39992 918 ft 79 kts 85°
2026-05-04 14:29 52.83009 -1.38057 747 ft 90 kts 86°
2026-05-04 14:29 52.83047 -1.35906 506 ft 96 kts 85°
2026-05-04 14:30 52.83066 -1.34808 380 ft 94 kts 87°
2026-05-04 14:30 52.83090 -1.33824 304 ft 70 kts 85°
2026-05-04 14:30 52.83103 -1.32681 293 ft 20 kts 111°
2026-05-04 14:31 52.82997 -1.32714 290 ft 18 kts 227°
2026-05-04 14:31 52.82929 -1.33024 291 ft 12 kts 266°
2026-05-04 14:32 52.82923 -1.33245 296 ft 7 kts 267°
2026-05-04 14:32 52.82923 -1.33316 297 ft 5 kts 268°
2026-05-04 14:32 52.82922 -1.33403 299 ft 10 kts 269°
2026-05-04 14:32 52.82921 -1.33554 301 ft 16 kts 275°
2026-05-04 14:33 52.82903 -1.33729 300 ft 14 kts 191°
2026-05-04 14:33 52.82806 -1.33707 298 ft 14 kts 175°
2026-05-04 14:33 52.82735 -1.33783 295 ft 14 kts 258°
2026-05-04 14:33 52.82705 -1.33930 294 ft 13 kts 238°
2026-05-04 14:34 52.82675 -1.33970 293 ft 6 kts 151°
2026-05-04 14:34 52.82669 -1.33933 292 ft 0 kts 60°